Location: Bergnershof
(48.9468°N, 10.9431°E)
Time: 22:36:16
(UTC+00:00)

SJ-6B - Pass Details

Date: 03 March 2021
Orbit: 509 x 581 km, 97.6° (Epoch: 13 April)

Event Time Altitude Azimuth Distance (km) Brightness Sun altitude
Exits shadow 19:23:03 29° 198° (SSW) 1,076 4.2 -23.5°
Maximum altitude 19:24:53 52° 260° (W) 719 3.6 -23.8°
Drops below altitude 10° 19:28:52 10° 338° (NNW) 1,876 6.0 -24.4°
Sets 19:31:03 0° 343° (NNW) 2,766 6.9 -24.8°
